Location: Newark
(46.7458°N, 0.9467°W)
Time: 19:58:13
(UTC+00:00)

N. Korean satellite - Visible Passes

Search period start: 15 September 2019 00:00
Search period end: 25 September 2019 00:00
Orbit: 455 x 508 km, 97.2° (Epoch: 15 September)

Date Brightness Start Highest point End Pass type
(mag) Time Alt. Az. Time Alt. Az. Time Alt. Az.
16 Sep 9.8 05:08:21 10° NE 05:10:26 15° E 05:12:31 10° SE visible
20 Sep 10.0 05:01:19 10° ENE 05:02:52 13° E 05:04:26 10° ESE visible
23 Sep 9.6 05:18:07 10° NE 05:20:44 20° E 05:23:20 10° SE visible
24 Sep 10.5 04:54:43 10° E 04:55:17 10° E 04:55:50 10° E visible
